Terminal Aerodrome Forecast
Issued by NWS Duluth, MN

Home | Current Version | Previous Version | Text Only | Print | Product List | Glossary On
Versions: 1 2 3 4 5 6 7 8 9 10 11 12 13 14 15 16
000
FTUS43 KDLH 302341
TAFDLH
TAF
KDLH 302341Z 0100/0124 08012G20KT P6SM FEW100
     FM010200 07007KT P6SM SKC
     FM011400 08014KT P6SM FEW050
     FM012100 09010KT P6SM SKC=

USA.gov is the U.S. government's official web portal to all federal, state and local government web resources and services.